Regional Weather Roundup
Issued by NWS

Home | Current Version | Previous Version | Text Only | Print | Product List | Glossary Off
Versions: 1 2 3 4 5 6 7 8 9 10 11 12 13 14 15 16 17 18 19 20 21 22 23 24 25 26 27 28 29 30 31 32 33 34 35 36 37 38 39 40 41 42 43 44 45 46 47 48 49 50

369
ASUS44 KLIX 221701
RWRLA
LOUISIANA WEATHER ROUNDUP
NATIONAL WEATHER SERVICE NEW ORLEANS LA
1100 AM CST MON DEC 22 2014

NOTE: "FAIR" INDICATES FEW OR NO CLOUDS BELOW 12,000 FEET WITH NO
      SIGNIFICANT WEATHER AND/OR OBSTRUCTIONS TO VISIBILITY.
      SKY/WX - SKY CONDITION AND SIGNIFICANT WEATHER.
      TMP - AIR TEMPERATURE.    DP   - DEWPOINT TEMPERATURE.
      RH  - RELATIVE HUMIDITY.  PRES - PRESSURE.
      HX  - HEAT INDEX.         WCI  - WIND CHILL INDEX.

*  THESE STATIONS ARE NOT NWS OR FAA STATIONS AND ARE NOT UNDER
   NWS QUALITY CONTROL.

LAZ040-048-061>063-065-066-069-221800-
SOUTHEAST LOUISIANA

CITY           SKY/WX    TMP DP  RH WIND       PRES   REMARKS
N.O. AUDUBON     N/A     70  67  89 MISG        N/A
N.O. INTL ARPT CLOUDY    70  65  84 S15       29.80F
N.O. LAKEFRONT MOSUNNY   70  64  81 S12       29.81F
N.O. DOWNTOWN* CLOUDY    70  63  78 S9        29.81F
SLIDELL        CLOUDY    68  64  87 SE8       29.80F
BATON ROUGE    HAZE      65  60  84 SE5       29.78F VSB 1
BOOTHVILLE     MOSUNNY   72  68  87 S10       29.83F
BELLE CHASSE   PTSUNNY   72  67  84 S10       29.80F
BOGALUSA*        N/A     66  60  80 CALM      29.82F
GALLIANO*      NOT AVBL
NEW ROADS*     NOT AVBL
GONZALES*      NOT AVBL
HAMMOND*       NOT AVBL
HOUMA*         MOSUNNY   72  68  88 S9        29.80F HAZE
PORT FOURCHON* PTSUNNY   72  68  88 S12G17    29.85F

$$

LAZ041-044-053-054-221800-
SOUTHWEST LOUISIANA

CITY           SKY/WX    TMP DP  RH WIND       PRES   REMARKS
LAKE CHARLES   CLOUDY    62  61  96 S9        29.76F
LAFAYETTE      CLOUDY    63  62  97 S7        29.78F FOG
PATTERSON      CLOUDY    72  66  83 S15       29.79F
SALT POINT       N/A     72  64  76 VRB7      29.77F
NEW IBERIA     CLOUDY    66  65  96 S6        29.78F FOG
CHENAULT AIRPK CLOUDY    61  61 100 S5        29.78F FOG

$$

LAZ027-028-221800-
CENTRAL LOUISIANA

CITY           SKY/WX    TMP DP  RH WIND       PRES   REMARKS
FORT POLK      NOT AVBL
ALEXANDRIA INT FOG       56  56 100 SE9       29.74F VSB 1/2
ALEXANDRIA     CLOUDY    56  56 100 SE5       29.75F

$$

LAZ001-002-221800-
NORTHWEST LOUISIANA

CITY           SKY/WX    TMP DP  RH WIND       PRES   REMARKS
SHREVEPORT     CLOUDY    55  54  96 S10       29.68F FOG
BARKSDALE AFB  NOT AVBL
DTN SHREVEPORT CLOUDY    55  52  89 S13       29.69F

$$

LAZ014-016-221800-
NORTHEAST LOUISIANA

CITY           SKY/WX    TMP DP  RH WIND       PRES   REMARKS
MONROE         CLOUDY    54  54 100 VRB6      29.76F FOG
TALLULAH       CLOUDY    59  56  89 S7        29.78F

$$




USA.gov is the U.S. government's official web portal to all federal, state and local government web resources and services.